| time (UTC) | temp F | wind direction | speed MPH | gust MPH | rain 1hr in | rain 24hr in | rain mn in | humidity % | barometer mb |
| 20260510033056 | 78 | 69 | 0.0 | 2.0 | 0.00 | 0.11 | 0.11 | 78 | 1011.2 |
| 20260510031557 | 78 | 0 | 0.0 | 0.0 | 0.00 | 0.11 | 0.11 | 77 | 1011.1 |
| 20260510030052 | 80 | 0 | 0.0 | 3.0 | 0.00 | 0.11 | 0.11 | 75 | 1011.0 |
| 20260510024601 | 80 | 101 | 1.0 | 6.0 | 0.00 | 0.11 | 0.11 | 74 | 1010.6 |
| 20260510023056 | 81 | 159 | 1.0 | 5.0 | 0.00 | 0.11 | 0.11 | 75 | 1010.3 |
| 20260510021558 | 81 | 116 | 0.0 | 4.0 | 0.00 | 0.11 | 0.11 | 74 | 1010.2 |
| 20260510020109 | 82 | 121 | 0.0 | 3.0 | 0.00 | 0.11 | 0.11 | 73 | 1010.1 |
| 20260510014606 | 83 | 189 | 1.0 | 6.0 | 0.00 | 0.11 | 0.11 | 71 | 1009.9 |
| 20260510013108 | 83 | 0 | 0.0 | 3.0 | 0.00 | 0.11 | 0.11 | 69 | 1009.8 |
| 20260510011557 | 84 | 0 | 0.0 | 2.0 | 0.00 | 0.11 | 0.11 | 68 | 1009.5 |
| 20260510010110 | 84 | 137 | 0.0 | 4.0 | 0.00 | 0.11 | 0.11 | 67 | 1009.5 |
| 20260510004600 | 85 | 70 | 1.0 | 6.0 | 0.00 | 0.11 | 0.11 | 66 | 1009.5 |
| 20260510003059 | 85 | 0 | 1.0 | 5.0 | 0.00 | 0.11 | 0.11 | 65 | 1009.5 |
| 20260510001550 | 86 | 65 | 1.0 | 5.0 | 0.00 | 0.11 | 0.11 | 64 | 1009.4 |
| 20260510000106 | 86 | 88 | 2.0 | 5.0 | 0.00 | 0.11 | 0.11 | 62 | 1009.2 |
| 20260509234604 | 86 | 125 | 1.0 | 5.0 | 0.00 | 0.11 | 0.11 | 60 | 1009.0 |
| 20260509233055 | 86 | 122 | 1.0 | 6.0 | 0.00 | 0.11 | 0.11 | 59 | 1008.9 |
| 20260509231557 | 87 | 123 | 1.0 | 4.0 | 0.00 | 0.11 | 0.11 | 60 | 1008.9 |
| 20260509230054 | 86 | 111 | 1.0 | 5.0 | 0.00 | 0.11 | 0.11 | 61 | 1009.0 |
| 20260509224555 | 87 | 64 | 0.0 | 3.0 | 0.00 | 0.11 | 0.11 | 59 | 1008.9 |
| 20260509223053 | 86 | 66 | 0.0 | 2.0 | 0.00 | 0.11 | 0.11 | 55 | 1009.1 |
| 20260509221611 | 86 | 0 | 0.0 | 3.0 | 0.00 | 0.11 | 0.11 | 54 | 1009.0 |
| 20260509220105 | 85 | 0 | 0.0 | 4.0 | 0.00 | 0.11 | 0.11 | 52 | 1008.8 |
| 20260509214554 | 85 | 85 | 1.0 | 7.0 | 0.00 | 0.11 | 0.11 | 52 | 1008.9 |
| 20260509213053 | 84 | 98 | 1.0 | 6.0 | 0.00 | 0.11 | 0.11 | 57 | 1009.3 |
| 20260509211552 | 83 | 127 | 0.0 | 3.0 | 0.00 | 0.11 | 0.11 | 59 | 1009.5 |
| 20260509210103 | 82 | 179 | 2.0 | 7.0 | 0.00 | 0.11 | 0.11 | 62 | 1009.7 |
| 20260509204559 | 80 | 98 | 3.0 | 8.0 | 0.04 | 0.11 | 0.11 | 76 | 1009.6 |
| 20260509203059 | 72 | 218 | 1.0 | 7.0 | 0.11 | 0.11 | 0.11 | 94 | 1009.4 |
| 20260509201553 | 70 | 205 | 1.0 | 10.0 | 0.11 | 0.11 | 0.11 | 93 | 1009.8 |
| 20260509200104 | 71 | 160 | 0.0 | 4.0 | 0.11 | 0.11 | 0.11 | 91 | 1010.5 |
| 20260509194558 | 77 | 0 | 1.0 | 7.0 | 0.07 | 0.07 | 0.07 | 81 | 1010.5 |
| 20260509193126 | 89 | 262 | 1.0 | 4.0 | 0.00 | 0.00 | 0.00 | 60 | 1010.2 |
| 20260509191615 | 90 | 143 | 0.0 | 6.0 | 0.00 | 0.00 | 0.00 | 60 | 1010.2 |
| 20260509190110 | 89 | 106 | 2.0 | 6.0 | 0.00 | 0.00 | 0.00 | 61 | 1010.3 |
| 20260509184558 | 90 | 148 | 1.0 | 5.0 | 0.00 | 0.00 | 0.00 | 62 | 1010.4 |
| 20260509183059 | 91 | 164 | 3.0 | 6.0 | 0.00 | 0.00 | 0.00 | 61 | 1010.7 |
| 20260509181554 | 90 | 162 | 2.0 | 5.0 | 0.00 | 0.00 | 0.00 | 62 | 1010.9 |
| 20260509180055 | 89 | 27 | 1.0 | 4.0 | 0.00 | 0.00 | 0.00 | 62 | 1011.0 |
| 20260509174558 | 87 | 160 | 2.0 | 6.0 | 0.00 | 0.00 | 0.00 | 67 | 1011.2 |
| 20260509173108 | 87 | 117 | 3.0 | 7.0 | 0.00 | 0.00 | 0.00 | 67 | 1011.5 |
| 20260509171618 | 86 | 0 | 1.0 | 7.0 | 0.00 | 0.00 | 0.00 | 69 | 1011.7 |
| 20260509170055 | 85 | 224 | 1.0 | 9.0 | 0.00 | 0.00 | 0.00 | 72 | 1011.5 |
| 20260509164557 | 84 | 174 | 4.0 | 8.0 | 0.00 | 0.00 | 0.00 | 72 | 1011.6 |
| 20260509163104 | 84 | 211 | 3.0 | 8.0 | 0.00 | 0.00 | 0.00 | 72 | 1011.6 |
| 20260509161558 | 83 | 221 | 1.0 | 7.0 | 0.00 | 0.00 | 0.00 | 75 | 1011.6 |
| 20260509160055 | 82 | 182 | 1.0 | 6.0 | 0.00 | 0.00 | 0.00 | 77 | 1011.6 |
| 20260509154558 | 80 | 174 | 2.0 | 8.0 | 0.00 | 0.00 | 0.00 | 82 | 1011.6 |
| 20260509153103 | 79 | 197 | 2.0 | 7.0 | 0.00 | 0.00 | 0.00 | 86 | 1011.5 |
| 20260509151607 | 76 | 143 | 2.0 | 7.0 | 0.00 | 0.00 | 0.00 | 91 | 1011.9 |
| 20260509150051 | 75 | 132 | 2.0 | 6.0 | 0.00 | 0.00 | 0.00 | 94 | 1011.7 |
| 20260509144557 | 74 | 70 | 0.0 | 3.0 | 0.00 | 0.00 | 0.00 | 95 | 1011.7 |
| 20260509143057 | 73 | 0 | 1.0 | 5.0 | 0.00 | 0.00 | 0.00 | 95 | 1011.5 |
| 20260509141557 | 73 | 167 | 0.0 | 6.0 | 0.00 | 0.00 | 0.00 | 95 | 1011.2 |
| 20260509140104 | 73 | 201 | 2.0 | 6.0 | 0.00 | 0.00 | 0.00 | 95 | 1011.1 |
| 20260509134601 | 73 | 0 | 0.0 | 0.0 | 0.00 | 0.00 | 0.00 | 95 | 1011.2 |
| 20260509133058 | 73 | 0 | 0.0 | 0.0 | 0.00 | 0.00 | 0.00 | 95 | 1011.6 |
| 20260509131620 | 73 | 0 | 0.0 | 0.0 | 0.00 | 0.00 | 0.00 | 95 | 1011.5 |
| 20260509130132 | 72 | 0 | 0.0 | 0.0 | 0.00 | 0.00 | 0.00 | 95 | 1011.3 |
| 20260509124557 | 72 | 0 | 0.0 | 0.0 | 0.00 | 0.00 | 0.00 | 95 | 1011.1 |
| 20260509123103 | 72 | 0 | 0.0 | 0.0 | 0.00 | 0.00 | 0.00 | 95 | 1010.9 |
| 20260509121559 | 72 | 0 | 0.0 | 0.0 | 0.00 | 0.00 | 0.00 | 95 | 1011.2 |
| 20260509120108 | 72 | 0 | 0.0 | 0.0 | 0.00 | 0.00 | 0.00 | 95 | 1011.3 |
| 20260509114612 | 72 | 0 | 0.0 | 0.0 | 0.00 | 0.00 | 0.00 | 95 | 1011.1 |
| 20260509113105 | 72 | 0 | 0.0 | 0.0 | 0.00 | 0.00 | 0.00 | 95 | 1011.9 |
| 20260509111606 | 72 | 0 | 0.0 | 0.0 | 0.00 | 0.00 | 0.00 | 95 | 1012.0 |
| 20260509110105 | 72 | 0 | 0.0 | 0.0 | 0.00 | 0.00 | 0.00 | 95 | 1012.1 |
| 20260509104558 | 72 | 0 | 0.0 | 0.0 | 0.00 | 0.00 | 0.00 | 95 | 1012.2 |
| 20260509103052 | 72 | 0 | 0.0 | 0.0 | 0.00 | 0.00 | 0.00 | 95 | 1012.2 |
| 20260509101554 | 72 | 0 | 0.0 | 0.0 | 0.00 | 0.00 | 0.00 | 95 | 1012.0 |
| 20260509100055 | 72 | 0 | 0.0 | 0.0 | 0.00 | 0.00 | 0.00 | 95 | 1011.0 |
| 20260509094552 | 72 | 0 | 0.0 | 0.0 | 0.00 | 0.00 | 0.00 | 95 | 1010.8 |
| 20260509093053 | 72 | 0 | 0.0 | 0.0 | 0.00 | 0.00 | 0.00 | 95 | 1011.0 |
| 20260509091555 | 72 | 0 | 0.0 | 0.0 | 0.00 | 0.00 | 0.00 | 95 | 1010.6 |
| 20260509084609 | 72 | 0 | 0.0 | 0.0 | 0.00 | 0.00 | 0.00 | 94 | 1010.8 |
| 20260509083053 | 72 | 111 | 0.0 | 1.0 | 0.00 | 0.00 | 0.00 | 93 | 1010.7 |
| 20260509081552 | 72 | 0 | 0.0 | 1.0 | 0.00 | 0.00 | 0.00 | 93 | 1011.3 |
| 20260509080053 | 72 | 0 | 0.0 | 1.0 | 0.00 | 0.00 | 0.00 | 93 | 1011.2 |
| 20260509074553 | 72 | 0 | 0.0 | 0.0 | 0.00 | 0.00 | 0.00 | 92 | 1011.1 |
| 20260509073053 | 72 | 0 | 0.0 | 0.0 | 0.00 | 0.00 | 0.00 | 92 | 1011.2 |
| 20260509071557 | 72 | 0 | 0.0 | 0.0 | 0.00 | 0.00 | 0.00 | 92 | 1011.3 |
| 20260509070104 | 72 | 0 | 0.0 | 1.0 | 0.00 | 0.00 | 0.00 | 92 | 1011.4 |
| 20260509064558 | 72 | 0 | 0.0 | 3.0 | 0.00 | 0.00 | 0.00 | 92 | 1011.0 |
| 20260509063052 | 72 | 94 | 0.0 | 4.0 | 0.00 | 0.00 | 0.00 | 91 | 1011.1 |
| 20260509061554 | 73 | 93 | 1.0 | 3.0 | 0.00 | 0.00 | 0.00 | 91 | 1011.0 |
| 20260509060057 | 73 | 200 | 2.0 | 7.0 | 0.00 | 0.00 | 0.00 | 90 | 1010.7 |
| 20260509054612 | 74 | 170 | 2.0 | 9.0 | 0.00 | 0.00 | 0.00 | 89 | 1011.0 |
| 20260509053143 | 74 | 217 | 1.0 | 7.0 | 0.00 | 0.00 | 0.00 | 88 | 1010.8 |
| 20260509051555 | 74 | 165 | 1.0 | 5.0 | 0.00 | 0.00 | 0.00 | 88 | 1010.4 |
| 20260509050053 | 74 | 85 | 0.0 | 4.0 | 0.00 | 0.00 | 0.00 | 87 | 1010.4 |
| 20260509044553 | 75 | 124 | 0.0 | 2.0 | 0.00 | 0.00 | 0.00 | 86 | 1010.4 |
| 20260509043056 | 75 | 113 | 0.0 | 3.0 | 0.00 | 0.00 | 0.00 | 86 | 1010.5 |
| 20260509041558 | 75 | 195 | 1.0 | 3.0 | 0.00 | 0.00 | 0.00 | 85 | 1010.6 |
| 20260509040110 | 76 | 199 | 0.0 | 2.0 | 0.00 | 0.00 | 0.00 | 85 | 1010.8 |
| 20260509034612 | 76 | 71 | 0.0 | 3.0 | 0.00 | 0.00 | 0.00 | 84 | 1010.6 |